Regional Weather Roundup
Issued by NWS Jackson, KY

Home | Current Version | Previous Version | Graphics & Text | Print | Product List | Glossary On
Versions: 1 2 3 4 5 6 7 8 9 10 11 12 13 14 15 16 17 18 19 20 21 22 23 24 25 26 27 28
000
ASUS43 KJKL 201910
RWRJKL

EAST KENTUCKY HOURLY WEATHER ROUNDUP
NATIONAL WEATHER SERVICE JACKSON KY
200 PM EST TUE FEB 20 2018

NOTE: "FAIR" INDICATES FEW OR NO CLOUDS BELOW 12,000 FEET WITH
NO SIGNIFICANT WEATHER AND/OR OBSTRUCTIONS TO VISIBILITY.

* THESE REPORTS ARE NOT UNDER NWS QUALITY CONTROL AND MAY NOT
  REPORT WEATHER SUCH AS PRECIPITATION AND FOG.

KYZ079-080-083-085-087-088-110-112-115-119-120-202000
...EASTERN KENTUCKY...

CITY           SKY/WX    TMP DP  RH WIND       PRES   REMARKS
JACKSON          N/A     78  52  40 S13G28    30.24F
LONDON           N/A     77  54  44 SW17G31   30.25F
SOMERSET*      PTSUNNY   77  54  44 MISG      30.24F
WILLIAMSBURG*    N/A     75  55  50 SW8G24    30.26F
MIDDLESBORO*     N/A     76  55  47 S12G18    30.28F
HARLAN APT*      N/A     75  50  41 SE5       30.29F
PIKE CO APT*     N/A     78  50  37 S10G18    30.25F
BIG SANDY APT*   N/A     80  52  38 S14G21    30.23F
MOREHEAD APT*    N/A     79  52  38 SW18G26   30.21F
ASHLAND*         N/A     78  54  43 W18G28    30.18F
$$

KYZ035-036-041-042-044-050-067-078-099-202000
...CENTRAL KENTUCKY...

CITY           SKY/WX    TMP DP  RH WIND       PRES   REMARKS
MT STERLING*     N/A     75  55  50 SW13G29   30.21F
FLEMING/MASON* PTSUNNY   75  56  52 SW22G35   30.19F
DANVILLE*        N/A     75  54  46 SW22G32   30.20F
LEXINGTON        N/A     78  53  41 S22G33    30.17F
FRANKFORT        N/A     77  53  43 S25G37    30.15S
LOUISVILLE     CLOUDY    81  53  37 S23G32    30.11F
LEBANON*         N/A     75  55  50 S23G32    30.17F
GLASGOW*       CLOUDY    75  56  51 SW14G29   30.19F
BOWLING GREEN  PTSUNNY   77  59  53 S22G36    30.17F
$$

KYZ091>093-OHZ055-061-077-WVZ005-015-034-035-042-202000
...SOUTHERN OHIO/WEST VIRGINIA...

CITY           SKY/WX    TMP DP  RH WIND       PRES   REMARKS
COVINGTON      PTSUNNY   76  56  49 SW17G35   30.11F
COLUMBUS       CLOUDY    76  57  51 SW23G32   30.13F
DAYTON         PTSUNNY   73  58  59 S24G37    30.09F
WILMINGTON       N/A     75  59  57 S21G30    30.12F
HUNTINGTON       N/A     80  51  36 SW13G20   30.19F
CHARLESTON       N/A     80  50  34 SW16G22   30.21F
BECKLEY          N/A     74  47  38 SW12      30.30F
BLUEFIELD        N/A     72  44  36 SW9       30.34F
LOGAN CO APT*    N/A     79  50  36 S10       30.25F
$$

VAZ002-007-008-TNZ017-027-036-066-071-202000
...SOUTHWEST VIRGINIA/EAST TENNESSEE...

CITY           SKY/WX    TMP DP  RH WIND       PRES   REMARKS
WISE*            N/A     72  50  46 SW13G23   30.34F
JONESVILLE*      N/A     75  54  46 SW9       30.32F
ABINGDON*        N/A     77  49  38 W9        30.32F
BRISTOL          N/A     77  53  43 SW9       30.30F
MORRISTOWN*    CLEAR     77  52  41 SW7G15    30.29F
SEVIERVILLE*   CLEAR     82  50  32 SW12      30.27F
KNOXVILLE        N/A     78  55  44 SW22G31   30.27F
LAFOLLETTE*    CLOUDY    75  55  50 SW16G26   30.31F
OAK RIDGE      CLOUDY    76  58  53 S8G21     30.28F
CROSSVILLE     CLOUDY    67  57  70 S12G20    30.31F
NASHVILLE      CLOUDY    77  58  51 S18G25    30.19F
$$

...KEY TO REMARKS...
VSB - VISIBILITY IN MILES
WCI - WIND CHILL INDEX
HX  - HEAT INDEX

$$




USA.gov is the U.S. government's official web portal to all federal, state and local government web resources and services.